Location: Asis
(14.1331°N, 120.9056°E)
Time: 17:08:15
(UTC+00:00)

Milstar 3 - Pass Details

Date: 15 January 2026
Orbit: 1100 x 5146 km, 28.2° (Epoch: 13 February)

Event Time Altitude Azimuth Distance (km) Brightness Sun altitude
Rises 09:56:42 0° 252° (WSW) 4,133 9.0 -3.0°
Reaches altitude 10° 09:59:03 10° 255° (WSW) 3,337 7.3 -3.5°
Maximum altitude 10:07:14 72° 339° (NNW) 1,896 4.0 -5.4°
Drops below altitude 10° 10:22:51 10° 63° (ENE) 5,993 5.9 -8.9°
Enters shadow 10:23:17 - 63° (ENE) 6,116 5.9 -9.0°
